sat.trackr.live / text

‹ back to catalog

SEAHAWK-1

NORAD 43820 · 2018-099BQ

PAYLOAD ACTIVE UNKNOWN

§ Identity

Operator
Country
US
Launch date
2018-12-03
Launch site
AFWTR
Launch vehicle
Mass (kg)
RCS (m²)

External: N2YO · Heavens-Above · Gunter

§ Orbital elements

Epoch: 2026-05-25T03:13:51.511872Z

Period
94.59 min
Inclination
97.3977°
Eccentricity
0.0009044
Mean motion
15.22365395 rev/d
Perigee alt
492.5 km
Apogee alt
504.9 km
Semi-major
6,876.8 km
B*
3.7022e-4
RAAN
197.9768°
Arg perigee
41.5917°
Mean anomaly
318.6005°
Rev number
40,902

§ Raw data

SEAHAWK-11 43820U 18099BQ  26145.13462398  .00008486  00000+0  37022-3 0  99902 43820  97.3977 197.9768 0009044  41.5917 318.6005 15.22365395409021

JSON: /api/v1/satellites/43820 · /tle

For live sub-satellite position, see the globe view (requires WebGL).

§ Visibility from observer

Set your observer location to see the next 7 days of passes ≥ 10°. The values pass through the URL so the page stays shareable.

No JS? Fill the form by hand. The geolocation button needs JavaScript.

§ Radio — SatNOGS DB

ModeDescriptionDownlinkUplink
GMSK Mode U - GMSK 9K6 400.751 MHz

1 transmitter · refreshed weekly from db.satnogs.org